Home   Weather   Chibougamau   Past weeks

Flag for Canada Past Weather in Chibougamau, Quebec, Canada — Yesterday and Last 2 Weeks

Now
12 °F

Clear.


Feels Like: 1 °F
Forecast: 10 / 24 °F
Wind: 8 mph from East

Location: Chibougamau-Chapais

Current Time: Jan 23, 2017 at 8:14:11 pm

Latest Report: Jan 23, 2017 at 7:00 pm


Visibility: 9 mi

Pressure: 30.15 "Hg

Humidity: 85%

Dew Point: 9 °F

Location of ChibougamauLocation

Past Weather in Chibougamau — Graph

°F

Chibougamau Temperature Yesterday

Maximum temperature yesterday: 28 °F (at 12:00 am)
Minimum temperature yesterday: 10 °F (at 10:00 pm)
Average temperature yesterday: 21 °F

High & Low Weather Summary for the Past Weeks

 TemperatureHumidityPressure
High32 °F (Jan 11, 7:35 am)100% (Jan 18, 8:41 pm)30.67 "Hg (Jan 18, 8:41 pm)
Low-26 °F (Jan 9, 2:04 am)62% (Jan 17, 1:00 pm)29.22 "Hg (Jan 11, 7:02 am)
Average12 °F83%30.02 "Hg
* Reported Jan 8 7:00 pm — Jan 23 7:00 pm, Chibougamau, Weather by CustomWeather, © 2017

Note: Actual official high and low records may vary slightly from our data, if they occured in-between our weather recording intervals... More about our weather records

Advertising

Chibougamau Weather History for the Previous 24 Hours

Scroll right to see more
 ConditionsComfort  
Time TempWeatherWind HumidityBarometerVisibility
7:00 pm
Mon, Jan 23
12 °FClear.8 mph85%30.15 "Hg9 mi
6:00 pm16 °FClear.7 mph79%30.16 "Hg9 mi
5:00 pm19 °FClear.8 mph68%30.14 "Hg9 mi
4:00 pm21 °FSunny.7 mph68%30.14 "Hg9 mi
3:00 pm23 °FSunny.12 mph63%30.16 "Hg9 mi
2:00 pm23 °FSunny.7 mph68%30.17 "Hg9 mi
1:00 pm21 °FSunny.8 mph74%30.16 "Hg9 mi
12:00 pm19 °FSunny.10 mph73%30.16 "Hg9 mi
11:17 am16 °FSunny.13 mph86%30.17 "Hg9 mi
11:05 am16 °FLight snow. Sunny.12 mph86%30.17 "Hg9 mi
10:39 am16 °FLight snow. Scattered clouds.12 mph86%30.18 "Hg9 mi
10:00 am14 °FLow clouds.12 mph85%30.19 "Hg9 mi
9:00 am10 °FPartly sunny.5 mph92%30.20 "Hg9 mi
8:46 am10 °FPartly sunny.6 mph85%30.20 "Hg9 mi
8:22 am9 °FScattered clouds.7 mph92%30.20 "Hg9 mi
8:08 am9 °FLight snow. Scattered clouds.7 mph92%30.20 "Hg9 mi
7:38 am9 °FLight snow. Low clouds.9 mph92%30.21 "Hg9 mi
7:00 am7 °FPassing clouds.9 mph92%30.20 "Hg9 mi
6:51 am7 °FPassing clouds.8 mph85%30.20 "Hg9 mi
6:00 am5 °FClear.5 mph92%30.19 "Hg9 mi
5:00 am9 °FClear.8 mph85%30.19 "Hg9 mi
4:00 am9 °FClear.9 mph85%30.17 "Hg9 mi
3:00 am9 °FClear.7 mph85%30.19 "Hg9 mi
2:00 am9 °FClear.7 mph92%30.17 "Hg9 mi
1:00 am10 °FClear.8 mph85%30.16 "Hg9 mi
12:00 am10 °FClear.9 mph92%30.17 "Hg9 mi
11:00 pm
Sun, Jan 22
10 °FClear.10 mph92%30.17 "Hg9 mi
10:00 pm10 °FClear.8 mph92%30.16 "Hg9 mi
9:00 pm12 °FClear.6 mph85%30.15 "Hg9 mi
8:00 pm14 °FClear.8 mph79%30.15 "Hg9 mi
Weather by CustomWeather, © 2017

See weather overviewHow to use our weather pages